Wind_Speed
16 16 16 16 15 14 13 13 13 13 12 12 12 11 11 11 11 11 11 11 11 12 13 13 13 12 12 12 10 10 12 12 11 11 13 14 14 13 12 12 13 13 14 14 14 14 13 14 15 16 15 15 16 16 15 14 14 17 19 19 18 18 18 15 12 14 19 20 19 19 19 19 19 20 20 18 16 17 17 16 15 13 13 13 14
18 18 17 17 16 15 14 13 13 12 12 12 12 12 12 12 12 12 12 11 12 13 14 13 12 12 12 12 11 11 13 14 13 13 14 14 14 12 12 12 13 14 14 14 15 14 14 15 16 17 16 16 16 16 15 14 15 18 21 21 20 20 20 17 14 15 18 19 19 19 20 20 21 20 18 17 16 15 14 14 13 13 14 14 14
19 18 17 16 16 15 14 13 13 12 12 12 13 13 13 13 13 13 12 11 12 12 12 10 10 10 10 10 11 12 13 14 14 14 15 15 14 13 12 12 13 13 14 14 14 13 14 14 15 15 13 13 15 15 15 16 17 18 19 19 19 19 19 19 17 16 18 20 20 19 19 19 19 19 17 16 15 14 14 14 13 15 15 14 15
15 16 15 14 15 15 14 13 13 12 12 12 13 12 12 13 13 12 12 10 10 10 10 9 9 10 11 11 12 14 14 14 14 14 14 15 15 14 13 13 13 13 14 13 13 12 13 14 14 13 13 13 14 14 14 16 17 17 18 20 21 21 20 21 20 18 19 20 20 20 19 17 18 19 18 17 15 14 14 14 13 14 15 15 15
12 12 11 9 10 11 12 12 12 13 12 11 11 11 11 10 9 9 10 9 9 10 10 9 9 10 11 11 12 13 13 12 12 12 12 13 13 13 12 12 13 13 13 12 13 13 13 13 13 12 12 13 14 14 14 15 16 17 17 19 21 21 18 18 18 18 18 19 21 21 19 17 18 19 18 17 15 15 13 13 14 14 14 15 14
6 6 6 6 4 6 7 9 10 10 9 8 8 8 9 9 8 9 9 9 10 9 9 9 9 9 10 10 11 11 11 10 9 9 9 10 11 11 11 11 11 12 12 12 12 12 12 13 13 13 14 15 15 14 14 15 16 16 17 17 16 16 15 14 14 15 17 20 22 21 18 16 16 17 17 15 14 14 14 14 16 16 16 15 14
4 6 6 5 7 10 7 6 6 6 7 7 7 7 7 9 9 9 9 9 8 7 7 8 8 8 9 10 10 9 9 9 9 9 9 10 10 10 10 11 11 11 11 11 11 11 12 13 14 15 15 15 15 15 15 17 16 14 15 15 13 13 14 13 13 14 17 18 18 18 18 15 12 13 15 14 13 15 15 15 16 16 16 16 14
12 10 8 9 14 15 10 6 6 6 7 7 8 8 9 9 8 7 7 7 7 7 7 8 8 8 9 10 9 9 9 9 9 9 9 9 9 10 9 9 9 10 10 10 11 11 12 13 15 15 15 14 14 14 15 15 14 13 13 14 13 13 13 14 14 15 16 16 16 19 19 14 11 12 11 10 12 12 11 11 13 16 16 15 14
18 17 15 15 17 18 15 10 7 7 7 8 9 10 9 9 8 8 8 7 7 8 8 8 8 8 8 9 8 9 9 8 7 7 7 7 7 7 8 8 8 9 9 9 10 10 11 12 13 13 13 13 15 16 17 16 14 13 13 12 12 12 13 14 14 15 14 13 14 18 19 14 11 13 11 8 9 10 9 9 12 14 15 15 15
21 20 19 20 20 20 18 13 8 8 8 9 10 9 9 9 8 9 8 8 8 7 7 7 7 7 7 7 7 7 7 6 6 6 7 6 5 5 6 6 7 7 7 7 7 8 9 10 11 12 12 14 15 16 16 16 16 15 15 14 13 12 12 12 13 14 13 13 14 15 16 15 13 12 12 9 8 9 9 9 9 11 12 13 14
19 20 21 21 20 18 19 17 12 9 9 9 8 8 9 9 8 8 8 7 7 6 5 6 6 6 6 6 6 6 4 4 6 6 7 7 6 4 4 4 4 4 4 5 6 7 7 8 9 10 10 11 12 12 13 13 13 14 15 15 14 13 12 12 14 14 12 14 16 14 11 14 14 13 13 11 8 9 9 8 8 10 11 11 12
18 19 20 21 21 19 19 18 15 11 10 9 9 9 9 9 8 8 8 7 6 6 5 5 5 5 5 6 5 4 3 4 6 5 5 6 6 4 3 3 3 3 4 5 6 6 7 7 8 8 8 9 9 9 10 10 10 12 13 13 13 13 13 14 15 15 12 12 15 14 11 13 12 10 10 9 8 9 9 9 8 9 10 11 12
17 18 19 20 19 15 14 15 15 13 11 10 10 10 10 10 9 10 9 8 7 6 6 5 5 5 5 5 4 3 3 5 5 4 3 3 4 3 2 2 2 3 4 4 5 6 6 7 7 7 7 8 8 8 8 8 9 10 10 11 11 12 13 14 14 15 14 13 13 12 11 11 10 8 9 9 9 11 11 11 11 10 11 12 14
17 17 18 17 15 13 13 14 14 13 12 12 11 11 11 11 11 11 11 9 8 8 7 6 6 6 5 5 4 4 2 3 2 2 1 1 3 3 2 2 2 2 3 3 4 5 5 7 7 7 7 7 7 7 8 8 8 8 7 7 8 9 9 9 9 9 10 10 11 10 10 10 10 9 10 9 10 11 11 11 11 11 11 12 12
18 17 16 15 13 13 14 14 13 13 13 13 12 13 13 13 12 12 11 10 9 9 8 7 7 7 6 5 5 4 1 1 3 3 3 2 3 2 1 0 1 2 3 3 4 5 5 7 8 8 8 7 8 9 9 9 9 8 6 5 6 5 5 6 7 8 8 8 9 11 10 10 10 10 10 8 7 8 9 9 9 9 10 11 11
17 16 15 14 13 13 14 14 13 13 14 14 14 14 15 14 14 12 11 10 10 9 8 7 7 7 6 6 6 5 3 4 5 4 3 4 4 3 2 2 3 3 3 4 4 5 6 7 8 9 9 9 10 11 9 9 11 10 8 6 5 5 6 7 7 8 10 10 12 13 12 10 10 10 8 5 4 5 6 7 8 8 9 10 10
15 15 15 15 14 14 14 13 13 14 15 15 16 16 16 15 13 12 11 11 10 10 8 7 7 7 7 6 7 7 6 6 5 3 3 5 5 3 2 3 3 3 4 4 5 5 6 8 8 8 8 8 11 11 10 9 11 12 10 9 8 8 7 6 5 8 12 13 11 10 8 5 4 2 1 2 3 3 5 7 8 8 9 10 9
14 15 15 15 15 14 14 13 15 16 16 16 17 17 16 15 12 12 12 11 10 9 9 8 7 7 6 6 7 8 8 7 6 4 4 5 6 4 3 4 4 3 4 4 5 5 7 9 9 9 8 9 11 12 11 10 10 10 10 10 9 9 8 7 7 10 13 12 8 6 4 2 2 2 3 5 5 3 4 7 8 8 10 10 9
14 15 15 15 15 14 13 14 16 16 16 16 16 16 15 14 13 12 11 10 10 9 9 9 8 7 7 8 8 8 8 7 6 6 6 7 8 5 3 4 4 4 4 5 5 5 7 8 9 11 12 12 12 12 11 10 9 8 10 10 9 8 9 10 10 10 10 8 5 4 4 3 3 2 4 7 7 4 4 7 8 8 9 10 9
15 15 15 16 15 14 14 15 16 16 15 15 15 14 14 13 12 11 10 10 10 10 9 10 9 8 8 10 10 9 7 7 7 8 8 9 8 6 4 5 5 5 5 5 5 5 6 6 8 12 15 14 12 11 10 10 9 7 8 9 8 8 9 10 10 9 7 5 4 3 3 2 1 2 2 3 4 3 4 6 6 7 8 9 9
15 14 16 17 16 16 16 16 15 15 14 14 14 12 12 12 11 10 10 9 10 10 9 10 10 9 9 10 11 8 6 6 7 8 9 8 7 6 5 6 6 5 5 5 5 5 7 7 8 12 14 12 11 10 8 9 8 6 6 7 8 10 10 9 8 6 5 4 4 4 4 3 3 3 3 2 3 3 4 5 6 7 8 8 9
16 16 16 17 17 16 16 15 14 13 13 13 13 12 12 11 11 10 10 9 10 10 10 9 10 10 9 10 9 7 6 6 8 8 7 6 5 5 6 7 7 5 4 5 5 6 7 7 9 12 14 12 10 9 8 8 6 5 6 8 10 10 8 5 5 5 5 5 5 6 5 5 5 4 4 4 4 5 6 7 7 8 9 9 10
16 17 17 16 15 15 15 14 12 12 12 12 12 12 11 11 11 10 10 10 10 10 9 9 9 10 10 9 8 6 5 6 7 7 6 5 4 5 7 8 7 6 5 5 6 6 7 8 9 11 13 12 10 9 9 8 8 7 6 6 6 7 6 4 4 5 6 7 8 8 8 7 6 6 5 6 6 6 7 9 9 8 9 10 10
15 15 15 15 14 13 13 13 12 12 12 12 11 11 11 11 11 11 11 11 10 10 9 9 9 9 9 9 8 6 4 5 6 6 5 4 5 6 8 8 7 7 6 5 5 6 6 7 8 10 12 12 12 12 12 12 11 10 9 10 10 10 7 4 5 6 7 8 9 10 11 10 8 7 7 8 8 7 7 9 10 9 9 10 10
14 13 13 14 13 13 13 12 12 12 12 12 11 11 11 11 11 11 10 10 10 10 9 9 8 7 7 8 8 6 4 4 5 5 4 4 5 7 8 8 7 7 6 4 4 4 4 5 7 10 11 12 12 12 12 14 16 15 13 13 11 9 7 7 7 7 8 9 9 10 10 10 9 8 8 9 9 9 8 9 10 11 10 10 10
13 13 13 14 14 14 13 12 12 12 12 11 11 11 10 10 10 9 9 10 10 9 8 7 7 5 5 6 7 6 4 4 5 3 3 4 6 9 9 8 8 7 6 5 5 4 3 4 6 8 9 9 10 8 9 12 15 15 13 12 11 9 9 9 9 8 8 9 9 9 9 9 9 9 8 9 11 11 9 9 12 14 14 12 11
14 13 13 13 13 13 13 13 13 12 11 10 10 9 8 9 8 7 6 6 7 7 7 5 5 4 4 6 7 6 5 5 5 3 3 3 5 7 7 7 8 8 6 4 4 3 2 2 4 4 5 6 7 8 9 10 11 11 10 10 11 10 10 9 9 10 9 9 10 10 10 10 9 9 8 10 11 11 10 10 12 14 14 13 12
14 14 13 13 13 13 14 15 13 11 10 11 11 9 8 7 6 6 5 5 5 5 5 4 3 3 5 6 7 7 6 6 5 5 6 6 5 6 7 7 7 7 6 4 4 3 3 3 3 4 4 4 5 7 9 9 10 11 11 10 10 11 11 9 9 10 10 10 10 11 11 11 10 9 10 10 10 10 10 10 11 12 12 12 13
13 14 14 14 13 14 14 14 13 12 13 15 14 12 10 9 9 9 8 8 8 7 6 6 5 5 6 7 6 6 6 6 7 8 9 9 8 9 9 8 8 7 8 8 6 4 4 4 5 6 6 6 7 8 8 8 8 10 11 11 10 11 12 11 10 10 11 11 10 10 11 11 10 10 11 10 10 10 9 10 11 13 13 13 14
12 13 13 13 14 14 13 13 14 14 15 17 17 16 15 13 13 13 13 12 10 9 8 10 10 9 10 10 8 8 10 10 10 11 11 10 9 10 10 8 7 7 9 8 6 4 5 5 5 6 6 7 8 8 8 8 8 8 9 10 10 11 11 12 12 11 11 11 10 10 10 11 11 11 11 11 11 11 10 10 11 13 14 14 14
11 13 13 13 14 14 14 14 15 15 15 17 19 20 20 19 18 17 16 15 14 13 13 14 13 12 13 14 13 13 14 13 12 12 11 10 9 9 8 7 6 7 7 7 6 5 5 4 4 5 5 6 8 7 7 8 9 9 9 9 10 11 12 13 13 12 11 11 10 10 10 10 11 11 11 11 11 11 11 11 12 12 13 14 14
11 12 13 14 14 15 14 14 14 15 15 16 17 18 19 20 19 18 17 16 16 15 15 15 15 15 15 15 16 15 15 14 13 11 10 9 8 7 6 6 5 4 4 5 5 5 4 4 5 5 5 6 7 8 8 9 9 10 10 10 10 11 12 13 14 12 11 11 11 10 11 11 11 11 11 11 11 12 12 13 13 13 13 13 14
12 10 12 14 15 14 14 14 14 14 15 15 15 15 15 16 16 17 17 18 18 18 18 17 16 16 16 15 15 15 15 13 11 10 8 7 5 5 6 7 7 4 2 4 4 4 5 6 7 6 6 6 7 8 9 9 8 8 9 9 9 10 10 11 12 11 11 11 11 11 12 12 12 12 13 12 12 13 13 13 13 13 13 14 14
13 12 12 13 13 13 13 14 14 14 14 14 14 14 14 14 15 15 15 16 18 19 20 19 17 16 17 16 15 14 13 11 9 8 6 4 4 4 5 6 8 8 6 5 5 6 6 6 6 6 6 6 7 7 7 7 7 7 7 8 8 9 9 10 11 12 12 11 11 11 12 13 12 12 13 13 13 13 13 13 12 12 12 13 13
16 17 15 13 12 11 11 12 13 13 14 14 15 15 15 14 14 14 14 15 17 18 19 18 17 16 16 16 14 13 12 10 9 7 5 4 4 4 3 3 5 8 9 8 8 7 6 6 6 6 6 6 6 6 6 6 7 8 8 8 9 9 10 10 11 12 12 11 11 12 12 12 12 12 13 12 12 12 12 12 11 12 12 13 13
15 17 16 14 13 12 10 11 12 13 14 15 15 16 16 15 15 16 16 16 18 17 16 17 18 17 16 15 14 13 12 12 11 10 9 9 8 6 4 4 6 8 8 8 8 8 7 7 6 6 6 6 5 6 6 6 7 8 9 9 9 11 11 11 12 12 12 10 10 11 12 11 11 12 12 12 12 12 12 12 12 12 12 13 14
12 14 15 14 15 15 14 13 13 14 15 16 16 17 17 16 17 18 17 16 16 15 14 14 15 14 13 13 12 12 13 13 13 13 13 12 10 8 8 8 8 8 8 8 8 7 7 7 6 6 6 6 6 6 6 7 7 8 9 9 10 11 12 11 11 12 11 11 11 11 11 11 11 12 12 12 12 12 12 12 13 13 13 13 14
10 12 15 16 16 16 16 16 15 16 16 17 17 18 17 17 18 18 17 17 15 13 12 11 10 9 9 8 6 5 6 7 8 9 10 10 9 9 9 9 8 8 8 8 7 6 6 6 6 5 6 6 6 7 7 7 8 9 10 10 10 11 11 11 11 11 11 10 10 11 11 11 11 12 12 11 11 12 12 13 13 13 14 14 13
10 10 14 17 17 16 17 17 16 16 16 17 18 18 18 18 18 17 16 15 14 12 10 9 7 6 6 5 3 2 2 3 4 6 7 8 8 8 8 7 7 7 6 6 5 5 4 4 5 5 6 6 7 8 8 9 9 9 10 10 11 11 12 11 11 11 11 10 11 11 11 12 12 12 12 12 12 13 13 13 14 14 14 14 14
16 14 14 15 16 17 18 17 16 16 18 19 19 19 19 18 17 16 15 13 11 10 9 8 6 5 4 3 2 2 2 3 5 5 6 6 7 7 6 6 6 5 5 5 5 5 5 5 5 6 6 6 7 8 8 9 9 9 9 10 10 11 11 11 11 11 11 11 11 12 12 13 13 13 12 12 13 14 14 14 14 15 15 15 16
18 17 16 16 16 16 16 16 16 18 19 19 18 18 18 17 16 15 14 12 10 9 8 7 7 7 6 5 5 5 5 4 4 5 5 5 5 5 5 5 5 5 5 5 5 5 5 5 6 6 7 7 8 8 8 9 9 9 9 10 10 11 11 10 10 11 11 11 11 12 12 13 13 13 13 14 14 14 14 14 15 15 15 16 16
18 17 18 18 16 14 14 16 17 18 19 19 18 17 17 16 14 12 11 10 9 8 8 8 8 8 7 7 7 5 4 4 3 3 4 4 4 4 4 4 5 5 5 5 5 5 5 5 6 6 7 8 8 8 9 9 9 9 9 9 10 10 10 10 10 10 10 11 11 12 12 13 13 13 13 14 15 15 15 15 15 16 16 16 17
17 17 17 18 18 17 17 19 19 19 19 19 18 17 16 14 12 11 9 9 8 8 8 8 8 8 8 7 5 3 2 3 3 3 3 3 4 4 4 5 5 5 5 5 5 5 5 6 6 7 8 8 8 9 9 9 9 9 10 10 10 10 10 10 10 10 10 11 12 12 12 13 14 13 14 14 15 15 15 15 16 16 17 17 17
18 17 18 20 20 18 17 18 19 19 19 18 18 17 15 13 12 11 10 9 9 8 8 7 7 6 6 5 3 2 3 3 4 4 3 3 4 4 4 5 5 5 5 5 6 5 6 7 8 8 8 9 9 9 9 10 10 10 10 10 11 11 11 11 11 11 11 11 12 13 13 13 14 14 14 15 16 16 16 16 16 17 18 18 17
19 19 19 19 18 17 17 18 18 18 18 17 16 15 14 13 12 11 10 9 8 7 7 7 6 5 5 4 3 4 4 4 4 4 4 4 4 4 4 5 5 5 5 6 6 6 7 8 8 9 10 10 10 10 10 10 11 11 11 11 12 12 12 12 11 11 12 12 13 13 13 14 15 15 15 15 16 16 16 17 17 17 18 18 18
19 18 18 17 17 16 15 16 16 16 15 15 14 13 13 12 11 10 9 8 7 7 7 6 6 5 4 4 4 4 4 3 4 4 4 4 5 5 5 6 6 6 6 6 7 8 8 9 9 10 11 11 11 12 11 11 11 12 12 12 12 12 12 12 12 12 13 14 14 14 15 16 17 17 16 16 16 16 16 17 17 18 18 18 18
19 18 17 16 16 15 14 14 14 15 14 13 13 12 12 11 10 9 9 8 7 6 6 6 5 5 4 4 4 4 4 4 4 4 4 4 5 5 6 6 6 6 7 8 9 9 9 10 10 11 11 11 12 12 12 12 12 12 12 12 12 12 12 12 12 14 15 15 15 15 16 17 17 17 17 17 17 17 17 18 18 18 18 19 18
21 18 16 15 15 15 14 14 14 14 13 13 12 11 10 10 9 8 8 7 6 6 5 5 5 5 4 4 4 4 4 4 5 5 5 5 5 5 6 6 7 8 9 9 10 10 11 11 12 12 12 12 12 12 12 13 13 12 13 14 13 13 14 14 15 15 16 17 17 17 17 18 18 18 18 18 18 19 19 18 18 18 18 19 19
18 16 15 14 14 14 13 13 13 12 12 12 11 10 9 9 8 8 7 7 6 6 5 5 5 5 5 5 5 5 5 5 5 5 5 6 6 6 7 8 9 9 10 11 12 12 13 13 13 13 13 14 14 14 14 14 14 14 14 13 12 13 15 18 18 19 19 20 19 18 18 19 20 20 19 19 20 20 20 19 19 19 19 19 20
16 15 14 14 14 13 12 12 12 11 11 10 10 9 9 8 8 7 7 7 6 6 6 6 6 5 6 5 5 5 5 5 5 6 7 8 8 8 10 10 11 11 12 13 14 14 15 15 15 15 15 16 16 16 16 17 17 16 15 14 15 17 19 20 20 20 21 21 21 21 21 21 22 22 22 22 22 22 22 21 20 20 19 19 20
16 15 14 13 13 12 11 11 11 10 10 9 9 9 8 8 8 8 7 7 7 7 7 6 6 5 5 4 4 4 4 5 6 7 8 9 10 11 11 12 13 13 14 15 15 16 16 17 17 18 18 19 19 18 18 19 19 17 17 18 21 22 20 19 19 20 20 21 23 23 23 23 23 23 24 24 24 24 23 22 21 21 20 18 19
Wind_Direction
185 190 193 198 199 201 205 204 203 204 203 207 215 220 221 222 226 228 227 227 226 228 232 235 239 241 243 247 235 219 230 242 245 251 258 261 262 261 255 252 254 257 261 263 262 261 260 260 262 265 268 270 270 271 271 270 274 277 275 273 272 273 274 266 258 264 268 269 273 275 275 275 272 270 269 267 266 267 268 268 266 264 264 265 267
200 198 192 194 198 198 201 201 200 201 202 206 214 219 220 221 224 226 226 224 225 229 233 235 238 242 245 245 234 226 240 252 255 259 260 256 253 250 248 248 251 255 258 260 260 262 263 264 268 271 270 267 266 269 272 270 269 269 267 265 262 262 264 261 258 266 271 271 271 271 268 267 268 268 267 268 271 269 266 266 265 265 268 266 262
202 196 189 190 194 195 198 198 197 198 200 207 215 217 218 220 221 223 223 224 226 229 233 238 242 243 242 240 237 241 252 260 263 264 263 259 253 247 245 246 248 252 258 261 261 263 265 267 271 273 270 267 267 267 269 268 266 263 258 255 257 261 264 262 258 261 268 271 273 272 269 265 267 272 272 272 274 273 270 271 272 273 272 267 264
194 190 187 187 188 189 194 196 194 197 202 210 215 215 216 220 221 222 225 226 227 231 237 243 244 242 241 243 247 253 260 263 266 267 266 265 261 254 250 250 251 253 255 259 261 262 265 268 271 272 268 266 266 263 261 261 261 261 257 254 257 264 267 264 257 255 264 273 276 274 275 272 272 278 281 279 277 276 274 275 279 280 278 274 273
190 186 182 181 187 190 193 198 198 200 206 213 217 216 219 222 222 223 227 229 232 238 245 246 247 248 247 247 250 255 258 260 264 265 262 262 260 256 252 252 254 254 254 257 260 262 263 265 265 263 259 260 260 258 258 257 256 258 260 260 261 263 262 257 253 252 258 269 275 274 275 275 275 280 282 282 284 284 279 278 283 287 286 282 281
185 163 148 137 173 205 204 208 210 205 208 214 215 214 215 218 222 226 228 231 235 240 246 248 248 250 249 248 250 252 253 252 251 249 244 243 244 243 244 248 249 251 253 255 256 258 259 260 260 257 255 255 255 256 258 258 257 258 261 263 263 262 260 257 257 255 255 260 267 271 274 276 277 278 282 289 294 293 294 298 294 290 288 286 283
139 103 115 152 226 238 229 217 213 205 207 211 207 201 206 215 221 224 226 229 235 239 243 245 246 248 248 249 251 252 252 249 242 236 232 230 230 233 237 240 245 249 253 253 253 254 256 257 258 257 254 253 255 258 261 263 262 261 263 267 268 266 264 264 263 262 261 262 265 272 276 276 276 278 282 290 292 289 296 304 300 293 290 291 290
145 149 168 210 238 244 240 226 206 200 202 208 208 204 210 218 216 214 219 225 233 238 237 238 242 246 249 251 253 253 251 250 244 237 232 229 229 234 237 239 245 250 254 255 254 255 258 258 258 257 256 257 260 263 265 266 269 267 264 266 269 268 265 264 265 266 268 270 274 279 279 276 283 290 289 290 291 292 298 300 298 298 296 293 294
157 171 182 202 223 232 234 225 202 198 198 202 211 209 207 209 205 207 214 218 224 231 233 237 240 242 246 250 250 247 245 245 242 233 228 228 232 238 242 245 248 250 254 258 257 257 256 256 257 258 261 263 262 262 263 265 268 269 267 267 269 271 270 270 272 274 275 277 281 285 286 288 295 295 291 291 295 301 310 307 300 299 297 292 290
164 174 187 205 219 227 227 218 203 203 203 202 207 206 202 202 203 207 211 212 219 225 229 233 236 238 243 245 243 243 242 238 231 225 220 221 232 244 243 243 249 250 254 262 264 263 259 257 260 263 265 267 266 265 266 265 266 268 271 272 270 270 273 275 278 278 280 285 287 287 291 297 300 294 290 294 297 299 307 310 304 299 297 294 292
174 182 193 207 217 220 219 217 212 209 209 208 204 201 201 200 200 201 204 209 212 211 217 225 229 236 239 235 233 231 223 225 233 232 221 209 212 234 245 247 255 256 260 270 275 277 274 269 271 273 273 274 276 276 274 271 269 269 271 272 269 268 272 275 277 280 284 290 290 290 295 298 299 297 298 302 303 302 304 303 298 296 295 291 291
180 188 197 208 214 213 211 212 209 201 202 205 199 193 192 192 197 199 198 200 193 187 201 212 213 221 221 216 218 205 193 227 236 223 208 202 196 203 241 255 261 263 268 278 284 287 286 282 282 283 280 279 283 286 282 280 280 278 274 272 270 269 270 270 272 278 284 288 290 295 301 300 297 297 302 306 305 302 301 297 293 292 291 289 290
185 191 200 210 212 205 200 202 202 197 196 197 192 185 183 188 196 193 184 179 174 175 184 182 175 181 184 182 178 165 190 240 238 210 206 220 195 181 225 251 254 266 276 283 287 289 291 290 289 290 288 285 287 290 287 283 286 287 285 282 278 275 276 276 274 277 280 284 288 292 296 298 298 298 301 304 304 305 305 301 300 298 294 294 299
189 192 197 203 203 195 192 197 198 193 193 193 187 183 184 186 185 177 171 169 165 163 161 153 151 154 156 153 141 141 198 247 227 184 186 202 166 162 207 237 242 271 283 287 294 297 296 297 299 303 306 304 302 303 302 298 293 289 291 291 282 276 279 283 285 287 286 286 289 292 296 301 301 303 308 308 304 305 305 303 304 305 301 300 301
192 194 195 195 194 191 191 192 190 188 189 186 179 178 180 176 171 166 164 164 160 154 150 148 149 148 145 145 138 139 183 184 131 124 111 109 125 136 156 279 336 340 331 325 324 324 321 321 322 321 326 329 325 322 319 311 301 294 293 294 287 279 276 280 295 308 303 295 297 299 302 301 291 287 297 305 301 301 303 300 298 295 294 299 298
192 191 190 190 190 191 190 187 183 180 179 175 172 172 169 165 163 161 157 156 151 147 146 147 149 146 145 149 142 132 123 119 117 109 95 96 96 85 52 33 30 18 4 353 348 342 337 339 337 333 338 338 326 323 326 319 313 312 312 310 305 300 290 287 304 322 313 300 297 295 294 293 281 272 278 296 301 303 305 299 295 293 295 301 302
185 182 182 184 185 185 182 178 173 167 166 167 166 164 160 158 158 154 151 150 148 146 147 149 151 152 155 155 140 124 119 120 116 101 88 95 92 71 55 60 50 34 21 4 353 345 340 344 346 343 341 333 322 325 332 329 326 327 331 337 335 326 316 310 321 333 327 319 316 311 300 290 284 276 318 338 328 331 329 317 317 318 310 303 304
178 173 175 176 176 176 174 172 168 161 159 160 159 157 155 153 151 149 149 149 147 146 146 148 151 152 151 143 127 121 126 129 118 94 85 104 110 104 94 89 67 35 24 5 349 343 336 337 344 348 344 331 324 327 333 336 338 336 334 339 335 329 340 348 337 328 326 326 335 348 346 353 42 42 7 346 348 6 348 328 326 324 311 307 314
174 171 171 170 169 168 166 163 161 157 155 155 153 151 149 147 146 147 148 147 146 146 146 147 149 146 138 127 116 116 122 118 102 89 93 110 115 108 90 78 54 26 13 356 345 344 336 332 335 341 343 337 329 327 325 325 331 333 328 326 325 336 356 353 333 321 319 316 318 332 341 11 30 358 337 348 359 8 351 334 330 325 316 315 320
170 167 163 160 160 158 157 157 155 153 151 149 147 145 144 144 146 147 147 145 142 143 146 146 143 137 132 125 117 114 113 105 95 96 102 105 102 90 65 45 30 18 3 347 341 346 347 346 341 338 341 339 331 327 321 314 314 323 327 325 322 331 340 332 319 314 312 306 301 296 290 294 300 273 282 329 342 341 340 330 323 323 319 315 317
161 160 156 154 153 150 151 153 151 148 147 144 142 142 142 143 145 144 143 140 136 137 141 141 135 128 125 124 120 117 116 110 104 108 109 98 84 73 56 35 20 11 357 345 350 356 358 359 347 339 344 345 338 334 333 325 318 312 305 299 296 304 312 314 312 309 299 286 277 265 257 250 247 247 246 249 264 293 311 304 299 302 300 300 302
154 154 151 148 146 145 146 148 146 144 144 142 141 142 142 141 140 139 135 131 130 133 134 132 130 127 127 125 121 121 127 125 118 119 120 107 82 61 46 37 31 23 3 354 4 8 6 3 352 349 358 6 359 354 356 351 343 327 301 291 294 308 323 325 313 306 295 282 276 272 269 268 269 274 279 281 286 298 304 303 302 298 291 287 286
150 149 148 144 143 144 143 144 143 142 143 145 143 140 137 135 134 133 132 130 129 132 134 136 137 137 132 126 122 125 134 138 135 131 125 108 76 46 33 31 36 39 26 12 12 12 8 7 3 4 13 20 21 21 22 19 16 9 359 349 348 3 17 3 316 310 301 296 302 308 307 305 308 313 315 313 313 314 312 310 308 303 297 292 286
149 147 147 143 142 143 144 144 144 142 143 144 140 134 132 134 136 135 134 135 137 140 146 150 150 147 140 132 134 140 140 136 133 125 112 89 55 39 31 24 29 45 45 23 8 7 9 12 17 21 23 27 31 32 33 36 37 35 36 39 35 30 22 345 320 320 312 310 322 328 323 319 321 322 319 315 315 312 305 302 303 301 296 293 291
152 148 146 143 141 142 142 141 138 138 140 140 137 136 137 138 138 137 139 144 148 151 155 153 147 145 140 135 134 135 128 117 108 99 91 69 35 28 33 30 29 39 41 21 5 9 16 27 33 33 32 34 35 34 32 35 38 38 41 44 39 25 8 351 343 337 328 328 332 327 321 322 322 319 316 311 303 297 293 295 303 304 295 286 287
152 147 144 141 140 139 137 136 135 135 139 139 138 140 141 137 137 143 148 150 149 145 143 143 140 135 130 123 118 114 112 110 100 80 59 36 16 15 24 31 32 35 31 19 17 22 29 43 41 35 36 40 41 43 40 35 34 34 34 37 37 28 17 10 6 359 350 345 339 331 327 327 324 321 315 299 291 295 301 304 307 310 305 298 296
149 148 144 141 140 138 136 135 135 132 131 132 131 130 132 134 137 140 138 138 142 141 135 135 141 138 123 110 106 106 105 100 91 64 41 37 20 16 25 32 35 38 31 11 6 12 18 31 27 26 36 41 43 51 51 41 36 36 33 32 33 31 25 20 16 9 0 349 341 336 332 327 321 317 308 296 297 310 319 315 314 316 314 309 304
151 151 147 142 140 138 137 137 134 121 110 110 108 100 98 100 98 94 85 77 86 109 120 120 120 121 118 111 108 109 99 83 72 66 69 77 73 54 50 49 43 40 32 12 3 5 15 23 21 25 35 36 34 45 52 49 45 42 38 35 34 30 28 27 24 17 7 354 344 340 336 330 326 323 316 312 319 328 328 322 321 322 318 312 305
155 152 147 144 143 142 141 140 132 118 113 115 109 99 96 95 90 89 91 86 80 82 92 96 85 84 98 101 102 111 107 93 87 85 84 88 86 71 61 61 59 46 30 20 13 8 13 19 21 22 24 26 31 36 40 41 39 35 32 30 26 22 22 22 18 14 10 0 348 343 340 335 333 333 328 326 329 330 329 328 326 323 319 314 307
158 154 151 151 152 150 145 138 130 122 119 120 114 103 100 102 102 98 95 94 96 99 101 98 94 96 104 103 100 109 115 111 103 96 91 89 86 76 67 65 61 40 18 7 4 10 16 21 27 27 28 37 42 39 33 29 26 23 22 24 21 17 16 17 12 6 4 358 349 344 343 339 337 336 334 332 331 327 326 329 328 325 323 318 313
159 158 159 156 152 151 146 137 131 126 121 120 117 108 100 96 95 96 97 99 103 107 108 108 107 111 117 115 110 108 109 106 100 95 91 85 78 71 65 57 47 34 15 359 358 18 28 35 42 32 26 37 41 36 30 29 25 17 12 15 19 17 13 12 7 359 354 353 350 348 347 342 338 336 334 333 330 325 322 323 323 323 322 320 318
170 166 158 152 150 149 146 139 134 131 127 124 122 116 107 99 93 92 97 103 105 106 107 109 109 110 113 114 111 107 102 99 95 90 85 77 66 56 47 32 24 29 18 355 357 18 27 35 43 34 23 31 37 33 30 29 25 19 12 8 12 15 11 7 3 354 349 349 348 348 347 342 338 335 332 330 328 324 323 323 322 320 319 316 315
173 163 149 149 150 149 144 140 140 140 138 134 130 125 119 113 106 100 98 98 100 100 100 100 100 100 100 99 99 99 97 94 90 83 74 64 49 42 39 29 22 19 351 332 352 29 39 44 52 50 42 40 40 39 39 34 27 21 14 5 4 6 3 360 355 349 346 345 342 342 342 338 335 334 330 328 325 321 320 321 319 318 318 315 313
158 151 148 150 151 149 148 149 148 146 143 141 138 132 127 124 124 120 111 101 96 95 97 98 99 99 99 97 96 95 91 83 75 67 59 49 47 52 48 34 32 39 41 33 42 60 63 62 58 50 43 43 41 40 40 35 23 14 7 1 359 359 357 356 354 349 344 341 339 340 338 333 331 331 327 323 322 319 317 318 319 320 320 318 317
150 151 152 150 148 151 155 153 150 148 146 144 139 135 134 133 130 126 121 114 109 105 103 103 102 100 98 96 90 83 74 66 58 53 51 59 69 65 46 28 42 50 53 55 60 65 65 61 56 48 43 43 40 33 29 25 17 11 6 2 1 0 357 356 356 351 344 340 342 342 337 332 332 331 326 323 323 322 320 320 323 324 321 320 320
147 147 144 140 140 144 147 147 148 147 145 142 137 133 131 130 125 120 119 120 120 117 112 110 106 101 95 89 81 73 66 61 61 66 73 77 74 62 50 58 62 58 57 60 64 66 65 62 60 55 48 41 33 26 22 19 15 10 6 3 1 1 357 355 356 351 344 342 345 343 338 337 336 334 332 329 327 325 325 325 325 322 321 322 321
140 136 134 135 137 139 141 143 145 141 137 135 132 127 124 123 122 122 124 125 124 123 122 121 117 108 98 88 77 68 64 63 63 67 69 69 66 62 62 65 64 61 62 62 60 61 63 61 58 54 45 36 29 21 17 14 12 7 2 357 355 355 352 352 354 351 345 345 348 346 343 342 341 338 336 333 332 332 332 330 327 322 321 321 316
115 120 129 133 133 134 135 136 138 138 135 132 127 122 121 122 122 124 128 130 129 128 129 130 124 113 109 108 96 81 80 76 69 63 59 57 57 60 62 63 63 63 63 61 59 62 62 55 49 41 30 22 16 10 4 1 359 357 354 350 350 350 349 350 353 352 348 349 351 351 350 348 347 345 341 338 338 338 334 331 330 326 325 323 318
107 110 120 123 122 125 131 135 138 138 132 126 124 122 122 123 124 127 130 130 127 125 124 122 113 104 115 137 164 189 164 101 65 55 55 53 51 52 54 57 60 62 61 58 54 49 45 39 29 17 9 5 1 357 354 350 348 347 346 344 344 345 346 349 351 351 350 352 353 353 352 351 350 347 343 340 340 337 333 331 329 327 325 324 321
132 128 125 119 118 125 133 136 137 133 128 126 128 128 127 127 128 129 128 124 121 119 116 111 102 92 89 90 76 56 70 76 64 55 52 50 47 47 48 49 49 46 40 34 25 11 6 7 1 354 352 351 346 344 343 340 340 340 340 340 341 342 345 347 348 347 348 349 350 349 348 347 345 341 339 339 337 332 329 328 327 326 324 322 319
128 130 130 126 127 133 138 136 133 130 128 127 126 125 126 126 127 126 124 123 122 120 113 104 98 90 85 91 93 79 65 69 69 58 49 44 41 39 39 40 38 25 11 8 5 356 352 350 343 340 341 340 337 336 335 332 333 335 336 337 337 338 339 340 342 343 344 344 346 346 345 344 343 339 337 337 334 329 328 328 326 326 325 323 322
122 124 127 130 133 134 131 128 127 126 124 123 121 120 121 121 120 120 121 122 120 117 111 105 102 95 90 99 108 97 73 62 58 49 44 41 38 35 33 34 31 20 9 5 1 351 345 341 335 334 335 332 330 330 328 326 326 327 327 329 330 331 333 334 334 336 337 339 341 341 340 341 341 338 337 337 334 330 330 328 326 326 325 324 325
116 117 122 127 130 131 130 128 126 122 118 117 117 113 112 112 111 111 112 111 109 110 111 109 106 103 98 98 100 94 75 66 58 51 49 46 37 30 29 30 26 16 7 6 5 356 347 340 334 331 331 328 326 324 322 321 320 318 317 320 321 322 324 326 327 328 330 332 334 334 335 337 337 336 336 336 335 333 330 327 325 324 322 321 322
114 115 115 117 120 123 124 122 118 113 110 109 107 104 104 106 107 107 107 107 106 107 108 106 106 108 108 103 92 70 65 68 63 55 47 39 30 22 18 21 18 6 359 4 7 0 347 339 334 330 327 323 320 317 315 314 313 310 309 311 311 312 316 319 320 320 322 324 326 328 330 332 333 332 333 333 332 332 330 328 326 324 321 319 318
115 114 112 115 117 117 114 112 111 109 108 105 103 102 103 104 104 105 107 108 107 105 103 102 104 104 103 99 89 76 70 68 65 54 37 24 18 12 8 8 4 357 355 1 1 353 343 337 332 328 325 323 319 314 311 309 306 304 304 304 304 306 310 312 313 313 313 314 317 320 323 326 327 328 329 330 330 330 329 328 326 324 324 322 319
110 111 114 117 118 113 110 110 109 106 105 104 103 104 104 102 101 103 102 102 106 108 107 106 105 100 93 88 82 70 56 49 47 41 26 15 10 6 4 2 357 353 351 350 346 341 336 333 329 326 324 323 320 315 312 309 305 301 298 296 296 299 302 304 304 305 306 308 309 311 315 318 320 320 322 324 325 325 325 325 325 325 325 325 322
103 107 110 111 110 107 105 104 102 100 101 102 101 101 101 101 102 102 100 99 104 106 104 102 101 93 86 81 72 60 46 35 30 24 17 13 9 6 4 359 351 345 341 336 333 331 330 328 326 324 323 322 320 316 312 310 307 303 299 297 294 291 293 301 304 303 301 302 301 302 305 307 308 310 314 317 319 318 318 319 321 321 319 319 319
105 108 109 109 108 106 102 101 99 98 97 96 95 96 98 101 103 105 106 107 108 105 101 100 97 91 84 76 65 54 43 31 23 19 17 13 8 4 359 351 344 338 333 329 327 327 325 323 321 320 319 319 318 314 309 307 304 301 299 299 296 290 291 297 299 295 294 294 292 291 293 295 294 297 302 305 307 309 310 311 312 313 312 310 309
106 108 107 106 104 102 101 100 99 97 97 97 97 97 98 100 102 104 105 104 102 99 97 96 94 89 84 73 61 51 42 34 27 23 16 9 1 353 345 339 334 330 327 325 324 323 320 317 315 313 312 311 311 311 309 306 302 300 300 303 303 300 298 299 298 297 297 296 291 285 285 286 286 287 289 292 294 297 299 300 303 306 307 306 302
102 103 102 99 97 97 97 96 94 94 96 98 99 102 105 106 105 103 103 103 101 98 94 90 86 80 74 66 54 44 37 28 17 8 359 350 344 340 335 332 330 326 324 322 321 317 314 313 311 307 305 304 303 302 301 300 300 298 296 295 297 301 304 304 305 305 304 301 295 288 284 282 282 282 282 283 285 287 288 289 291 295 298 299 297
98 99 98 96 96 96 95 94 93 95 97 99 102 105 105 103 102 101 100 99 96 91 85 80 74 69 64 56 42 30 21 6 352 345 341 337 335 332 329 325 323 321 318 316 314 312 311 310 308 306 305 304 302 300 301 302 299 294 289 291 296 302 305 306 307 307 306 303 298 292 286 281 279 279 280 280 281 282 282 283 284 286 288 290 291
Height
800 802 804 806 808 810 812 813 815 817 818 819 820 821 822 823 823 823 824 825 827 827 828 828 829 830 830 831 832 833 833 834 835 835 835 836 836 837 838 838 839 839 839 839 839 839 839 838 837 837 837 837 836 835 835 835 835 834 835 834 834 834 834 833 831 825 822 823 821 820 821 820 819 818 816 816 815 815 814 814 814 813 813 813 812
796 799 802 804 806 808 810 812 813 815 816 818 818 819 820 821 821 821 822 824 825 825 825 825 827 828 829 830 831 832 832 832 833 833 833 834 834 835 836 836 836 836 837 837 837 837 837 836 835 835 835 834 833 833 833 833 832 831 831 831 830 830 830 829 828 825 821 820 819 818 817 817 816 815 813 812 812 812 812 812 811 811 811 811 811
794 797 800 802 804 806 809 810 812 814 815 816 816 817 818 818 819 820 821 822 823 823 824 825 826 827 827 828 829 830 830 830 831 831 831 832 832 833 834 834 834 834 834 835 835 835 835 834 834 833 833 832 831 831 830 830 829 828 827 827 826 826 826 826 824 822 819 818 818 817 815 814 813 812 811 810 809 809 809 809 809 809 808 808 808
795 796 798 801 803 805 807 809 810 812 813 814 815 816 816 817 817 819 820 821 821 822 823 824 825 825 826 827 827 827 828 828 829 829 829 830 830 831 832 832 832 832 832 832 833 833 833 832 832 831 831 830 829 828 828 827 827 826 824 824 823 822 822 822 821 820 818 816 816 815 813 812 810 810 809 808 807 807 807 807 807 807 806 806 806
795 797 800 803 805 806 807 808 809 811 812 813 814 815 815 816 817 818 819 820 821 822 822 823 823 824 824 825 825 825 826 826 826 827 827 828 828 829 830 830 830 830 830 830 830 831 831 830 830 830 829 828 826 826 825 825 824 824 822 821 820 819 819 818 817 817 817 815 813 812 812 810 808 808 809 808 806 805 805 805 805 806 805 805 805
797 801 804 806 807 808 808 809 810 811 812 813 813 814 814 815 817 818 818 819 820 821 821 822 822 823 823 823 823 823 824 824 824 825 825 826 826 827 828 828 828 828 828 828 828 828 828 828 828 827 826 825 824 823 823 823 822 821 821 820 819 818 817 816 815 814 814 813 812 810 809 808 806 807 808 808 806 805 804 804 805 806 805 803 803
802 806 808 808 808 808 808 809 810 810 811 811 812 813 813 814 815 816 817 818 819 820 820 821 821 821 821 821 822 822 822 822 822 822 823 823 824 825 825 826 826 826 826 826 826 826 825 825 825 825 824 823 822 822 821 820 820 819 819 818 817 816 815 814 814 812 811 810 809 808 807 805 805 805 806 806 805 804 804 804 804 804 804 803 802
801 805 806 806 807 807 808 809 808 809 810 810 811 811 812 813 814 815 816 817 818 819 819 819 820 820 820 820 820 820 821 821 820 821 821 822 822 823 823 824 824 824 825 825 824 824 824 824 823 823 822 821 821 821 820 819 819 818 818 817 816 816 815 814 812 811 809 808 808 808 806 804 803 804 804 803 802 802 803 803 802 802 802 802 802
797 798 799 800 802 802 803 806 807 808 808 809 810 810 810 812 812 813 814 815 816 817 817 817 818 818 819 819 819 819 819 819 819 820 821 821 822 822 822 823 823 823 823 823 823 822 822 822 822 821 820 820 820 819 819 818 818 817 816 816 815 814 814 813 812 810 808 807 807 807 806 804 804 805 804 802 801 802 802 802 802 801 801 800 799
792 794 794 795 796 796 799 803 805 806 807 808 808 809 809 811 811 812 813 814 814 815 815 816 817 817 817 818 818 818 818 818 818 819 819 820 821 821 822 822 822 822 822 821 821 821 821 821 820 819 819 818 818 818 817 816 816 816 815 814 814 813 812 812 811 809 808 807 806 806 806 805 804 804 803 801 801 801 801 801 801 800 800 799 798
788 790 790 791 792 794 797 801 803 804 806 807 807 808 808 809 810 811 812 812 813 813 814 815 815 816 816 816 817 817 817 818 817 818 818 819 820 820 821 821 821 821 821 821 821 820 820 819 819 818 818 817 817 816 815 815 814 814 813 813 812 811 811 810 810 809 808 807 806 805 805 805 804 804 803 801 800 800 800 799 799 799 799 798 796
785 786 787 788 790 793 796 798 800 802 804 805 806 806 807 808 808 810 811 811 812 812 813 814 814 815 816 816 816 816 817 817 817 817 817 818 818 819 820 820 820 820 820 820 820 819 819 818 818 818 817 816 816 815 814 813 813 812 811 811 810 809 809 809 808 807 807 807 806 805 804 804 804 803 803 801 799 799 799 798 798 799 798 797 795
783 783 784 786 788 791 794 796 798 800 801 803 804 804 805 806 807 808 809 810 811 812 812 813 813 814 815 815 815 816 816 816 816 817 817 818 818 819 819 820 820 820 820 819 819 819 818 818 817 817 816 815 815 814 813 812 811 810 809 809 808 808 807 807 807 806 806 806 805 804 804 803 802 802 801 800 800 799 798 798 798 798 797 796 794
781 782 783 785 787 790 793 794 796 797 799 800 802 802 804 805 806 807 808 809 810 811 811 812 813 814 814 815 816 816 816 816 817 817 817 818 818 818 819 819 819 819 819 819 818 818 817 817 816 816 816 815 814 813 812 811 810 809 808 808 807 807 806 806 806 805 805 805 805 804 803 803 802 801 800 800 800 799 799 799 798 798 797 796 795
780 781 783 785 787 789 791 792 794 795 797 799 800 801 803 804 805 806 807 808 809 810 811 812 813 814 814 815 816 816 816 816 817 817 818 818 818 818 818 819 818 818 818 818 818 818 817 816 816 815 815 814 813 812 811 810 809 808 807 807 806 806 806 806 805 805 805 805 804 804 803 802 801 801 800 800 800 800 799 799 798 798 797 796 795
779 781 783 784 786 788 789 791 792 794 796 797 799 800 802 803 805 806 807 808 808 809 811 812 812 813 814 815 815 816 816 816 817 817 818 818 818 818 818 818 818 818 818 818 818 818 817 817 816 816 815 814 813 812 811 810 808 807 807 807 806 806 805 805 804 804 804 804 803 803 802 801 800 800 800 800 800 800 799 798 797 796 795 794 793
778 780 782 783 785 787 789 790 792 793 795 797 798 800 801 803 804 805 806 807 808 809 810 811 812 813 814 815 815 815 816 817 817 818 818 818 819 819 819 819 819 819 819 819 819 818 818 817 817 816 816 815 813 812 811 810 808 807 807 806 806 805 804 804 803 803 803 803 802 801 800 800 800 800 800 800 800 799 799 798 797 796 795 793 791
777 780 782 783 785 787 788 790 792 794 795 797 798 799 801 802 803 804 806 807 808 809 810 811 813 814 815 815 815 815 816 817 818 818 819 819 819 820 820 819 819 819 819 819 819 818 818 817 816 816 816 814 813 812 811 810 809 808 807 806 806 805 804 804 804 804 803 802 801 800 800 800 800 800 800 800 799 799 799 798 797 796 795 793 791
778 780 782 784 785 787 789 791 792 794 796 797 798 800 801 802 803 804 806 807 808 809 810 812 813 815 815 815 815 816 817 818 819 819 819 819 819 820 819 819 819 819 818 818 818 818 818 817 815 815 814 813 812 811 810 809 809 809 808 806 806 805 805 805 805 805 804 802 801 801 800 800 800 800 799 799 799 799 799 798 798 796 795 793 792
779 781 782 784 786 787 789 791 793 794 796 797 799 800 801 802 803 805 806 806 808 809 811 812 814 815 815 815 816 817 818 818 819 819 820 820 820 820 820 819 819 819 819 818 817 817 817 817 815 814 813 811 810 809 809 808 808 808 808 807 806 806 805 806 806 805 804 803 802 801 800 800 800 799 799 798 798 798 798 798 797 797 796 794 793
780 782 783 785 786 787 789 791 793 794 796 797 799 800 801 802 804 805 806 807 808 810 811 813 814 815 815 815 816 818 819 819 820 820 820 821 820 820 820 820 819 819 819 818 817 817 817 817 815 814 812 810 809 808 807 807 807 807 807 807 806 806 806 806 805 804 803 802 801 800 799 799 798 798 798 797 797 797 797 797 796 796 795 794 793
781 783 785 786 787 788 789 791 793 795 796 798 799 800 801 803 804 805 806 807 809 810 812 813 814 814 815 816 817 818 819 820 820 820 821 821 821 821 820 820 820 819 819 818 817 817 817 817 815 813 811 810 808 807 807 806 806 806 806 806 805 805 805 805 804 804 802 801 800 799 798 797 797 796 796 797 796 796 796 795 795 794 793 793 792
782 783 785 786 787 788 790 792 793 795 797 798 799 800 802 803 804 805 807 808 809 811 812 813 814 815 815 816 818 819 820 820 820 820 821 821 821 821 820 820 819 819 818 818 818 817 817 816 815 813 812 810 809 808 807 806 806 805 805 805 805 804 804 804 804 803 802 800 800 799 798 797 797 796 796 796 796 795 795 794 793 793 792 791 790
783 784 785 786 787 789 791 792 794 796 797 799 800 801 802 804 804 806 807 808 810 811 812 813 814 814 815 817 818 820 820 819 820 820 820 820 821 820 820 819 819 818 818 818 818 817 817 816 815 814 813 812 810 809 808 807 807 806 806 805 805 805 805 805 804 803 802 801 800 800 800 798 797 796 796 796 795 794 793 792 792 791 790 788 788
784 784 784 786 788 789 791 793 795 796 798 800 801 802 803 804 805 806 807 808 810 811 812 813 814 815 816 817 818 819 820 820 820 820 820 821 821 820 820 819 818 818 818 818 818 817 817 817 816 815 814 813 812 811 811 809 808 807 807 806 806 806 806 805 804 803 802 801 800 799 799 798 797 796 796 795 793 792 792 791 790 789 788 786 785
784 784 785 786 788 789 792 794 796 797 799 800 802 803 804 804 805 806 807 808 809 810 811 812 813 815 817 818 818 819 820 821 821 821 821 821 821 820 820 819 819 818 818 818 818 818 817 817 817 816 816 815 814 813 812 811 810 810 809 808 808 807 807 806 804 804 803 802 801 799 798 797 796 795 795 794 792 791 790 790 789 788 787 785 783
784 785 786 787 788 790 792 794 797 799 800 801 802 803 804 805 806 807 807 808 808 809 810 811 812 814 817 818 819 820 821 821 822 822 822 822 821 821 820 820 819 819 819 819 818 818 818 817 817 817 816 815 814 813 813 812 812 812 811 810 810 809 808 807 806 805 804 803 802 800 799 798 796 795 794 793 791 790 790 789 788 787 786 785 783
784 785 786 788 790 791 793 795 797 799 801 801 802 804 805 807 808 809 808 808 808 808 809 811 812 814 816 819 820 821 821 822 822 822 822 821 821 821 821 821 820 820 820 819 818 818 817 817 816 816 815 814 814 813 813 814 813 813 812 812 811 810 809 808 807 806 805 804 803 801 800 798 796 795 794 792 791 790 790 789 788 787 786 784 782
784 785 787 788 790 792 793 795 797 799 801 802 804 805 807 808 809 810 810 810 810 810 811 812 814 815 817 819 820 820 821 823 823 822 822 822 822 822 822 821 821 821 820 819 818 817 817 816 816 815 815 815 814 814 815 815 814 814 813 812 812 811 810 809 808 807 806 805 804 802 801 799 797 796 794 793 791 791 790 789 788 786 785 783 781
786 787 787 788 790 792 793 795 797 799 801 803 805 807 809 810 811 812 812 813 813 813 813 814 816 817 818 820 820 821 822 823 823 823 823 824 823 823 822 822 821 820 820 819 818 818 817 817 817 816 816 816 816 816 817 816 816 815 815 814 813 812 811 810 809 808 807 806 804 803 801 799 798 796 794 793 792 791 790 788 787 786 785 783 780
786 787 788 789 790 792 793 796 798 800 802 804 806 808 810 812 813 814 814 815 816 816 816 817 818 819 820 821 822 822 823 824 824 824 824 824 824 823 823 822 821 821 820 819 819 819 818 818 818 818 818 818 818 818 818 817 817 817 816 815 814 813 812 811 810 809 808 806 805 803 802 800 799 797 795 794 793 791 789 788 787 786 785 783 780
787 787 788 790 792 793 795 797 799 801 803 805 807 809 811 813 815 817 818 818 818 818 819 820 820 821 821 821 822 823 824 824 824 824 824 825 825 824 824 823 822 821 821 820 820 820 819 819 820 820 820 820 820 819 819 819 819 818 818 817 815 815 814 813 811 810 809 807 806 804 802 801 800 798 796 795 793 791 789 788 786 785 784 783 781
787 788 789 791 793 795 796 798 800 802 804 805 807 809 811 813 816 819 820 821 820 820 821 822 823 823 823 823 823 824 824 825 825 825 825 826 826 825 825 824 823 822 821 820 820 820 821 822 822 823 822 822 821 821 821 821 820 820 819 819 817 816 816 814 813 811 810 808 807 805 804 802 801 799 797 795 793 791 790 788 787 786 784 783 781
784 787 790 792 794 796 798 800 801 803 804 805 807 809 811 814 816 819 821 822 822 823 823 824 825 825 825 825 825 825 826 826 826 826 826 826 826 826 825 825 824 823 822 822 821 822 823 824 824 824 824 823 823 823 822 822 822 821 821 820 819 818 817 815 814 813 811 809 808 806 805 803 801 800 798 796 794 792 790 789 787 786 785 784 782
783 786 790 793 796 799 800 801 802 803 804 805 807 809 811 814 816 819 820 822 823 825 826 827 828 827 827 827 827 828 828 827 827 827 827 827 827 826 826 825 825 825 824 824 824 825 825 825 826 826 825 825 825 824 824 823 823 822 822 821 820 819 817 816 815 814 812 810 809 807 806 804 802 801 799 797 795 793 791 790 788 787 786 785 783
784 786 789 792 794 797 799 800 802 803 805 806 807 809 812 814 817 819 821 823 824 826 827 828 829 829 828 829 829 829 829 829 828 828 828 828 828 827 826 826 826 826 826 826 826 827 827 827 827 827 827 826 826 825 825 824 824 823 823 822 821 820 819 817 816 815 813 811 810 809 807 805 804 802 800 798 797 795 793 791 790 789 787 786 785
785 785 787 790 791 794 797 800 802 803 805 806 808 810 812 815 817 819 822 824 825 826 827 828 829 829 830 830 830 830 830 830 830 830 829 829 829 828 828 828 828 828 828 828 828 828 828 828 828 828 828 827 827 826 826 825 824 824 823 822 821 821 820 819 817 816 814 812 811 810 808 806 805 803 802 800 798 796 795 793 792 790 788 787 786
788 788 788 790 792 794 797 800 803 804 806 807 808 810 813 815 817 820 822 824 825 826 827 827 828 828 829 830 831 831 830 830 830 831 831 831 830 830 829 829 829 829 829 830 830 830 829 829 829 829 828 828 827 827 826 825 825 824 823 823 822 821 820 819 818 817 815 814 812 811 809 808 806 805 803 801 799 798 796 795 793 791 789 788 786
793 795 794 793 794 796 799 802 804 806 806 807 809 811 813 816 818 820 822 823 824 825 826 826 827 827 828 830 830 830 830 830 831 832 832 832 831 831 830 830 830 830 830 830 830 830 830 830 830 829 829 829 828 827 827 826 825 824 824 823 822 821 820 820 819 818 817 815 814 812 811 809 808 806 804 802 801 799 797 795 793 792 790 788 786
792 795 797 797 796 798 801 804 805 806 807 808 810 812 814 816 818 820 821 823 824 825 826 826 827 828 829 830 830 829 830 831 832 833 832 832 832 832 831 831 831 831 830 830 831 830 830 830 830 830 829 829 828 828 827 826 825 824 824 823 822 821 821 820 820 819 818 816 815 813 811 810 808 806 804 802 801 799 797 795 793 792 790 788 786
789 793 797 798 799 801 804 806 807 807 808 810 811 812 814 815 817 819 821 823 824 825 826 827 828 830 831 831 831 831 831 831 832 833 833 833 833 833 832 832 832 831 830 830 831 831 831 831 830 830 829 829 828 828 827 826 826 825 824 823 823 822 821 820 820 819 818 816 815 813 812 810 809 807 804 803 801 799 797 795 793 791 790 788 786
790 794 797 800 802 804 806 808 809 809 810 811 813 813 814 815 816 818 820 822 823 824 826 828 830 831 832 832 832 831 831 832 832 833 833 833 833 833 832 832 832 832 831 831 831 831 831 831 830 830 829 829 828 828 827 826 826 825 824 824 823 822 821 820 820 819 818 817 815 814 812 810 809 807 805 803 801 799 797 795 794 792 790 788 787
792 796 799 802 805 807 810 811 811 811 812 813 813 813 814 815 817 819 821 822 823 825 827 828 830 831 832 833 832 832 832 832 833 833 833 834 833 833 832 832 832 832 832 831 831 831 830 830 829 829 829 828 828 828 827 826 825 825 824 823 823 822 821 820 819 819 818 816 815 813 812 810 809 807 805 804 802 800 798 796 795 793 791 789 787
795 798 801 804 807 810 812 812 812 812 813 813 813 814 815 817 818 820 822 824 825 826 827 829 830 831 832 833 833 832 832 833 833 833 834 833 833 833 832 832 832 832 831 831 831 830 830 829 829 828 828 828 827 827 827 826 825 825 824 823 822 822 821 820 819 818 817 816 815 813 811 810 808 806 805 804 802 800 798 796 795 793 792 790 788
798 801 804 807 810 812 813 813 812 812 813 813 813 815 816 818 820 822 823 825 826 827 828 829 830 831 832 832 833 833 833 833 833 833 833 833 833 833 832 832 832 832 831 831 831 830 830 830 829 828 827 827 827 826 826 825 825 824 824 823 823 821 820 820 819 818 817 816 814 812 811 809 807 806 804 803 802 800 798 796 794 793 791 789 787
801 804 807 810 812 813 813 813 813 812 813 814 815 816 818 820 822 823 825 826 827 828 829 830 831 832 832 833 833 833 833 833 833 833 833 833 833 833 832 832 832 831 831 831 831 830 830 830 829 828 828 827 826 826 825 825 824 824 823 823 822 821 820 819 818 817 816 815 813 812 810 808 807 805 804 802 801 799 797 796 794 792 790 788 787
803 807 809 811 812 813 813 813 813 813 814 815 817 818 820 822 823 825 826 828 828 829 830 830 831 832 832 833 833 833 833 833 833 833 833 833 833 833 832 832 832 832 831 831 830 830 829 829 828 828 827 827 826 826 825 824 824 823 822 821 820 820 819 818 817 816 815 814 812 811 809 808 806 804 802 801 799 798 796 794 792 791 789 787 785
805 808 810 811 812 813 814 814 815 815 816 818 819 821 822 824 825 826 828 829 829 830 830 831 832 832 832 833 833 833 833 833 833 833 833 833 833 833 833 832 832 832 831 830 829 829 828 828 827 827 826 826 825 825 824 823 822 821 820 819 819 818 817 816 816 815 813 812 811 809 808 806 804 802 801 799 798 796 795 793 791 790 788 786 784
807 809 811 811 812 813 814 815 816 817 818 820 822 823 824 826 827 828 829 830 830 830 831 831 832 832 832 833 833 833 833 833 833 833 833 833 833 833 832 832 831 831 830 829 828 828 827 827 827 826 826 825 824 823 823 822 821 820 819 818 816 815 814 814 813 812 810 809 808 807 805 803 802 800 798 797 796 794 793 791 789 788 787 785 782
809 810 812 813 814 815 816 817 818 819 820 822 824 825 826 828 829 829 830 830 831 831 831 831 832 832 832 833 833 833 833 833 833 833 832 832 832 831 831 831 830 830 829 828 828 827 826 826 825 824 824 823 823 822 821 820 819 818 816 815 814 813 812 811 809 808 807 806 804 803 801 800 798 796 795 793 792 791 789 788 787 785 784 782 780
811 813 814 815 816 817 818 819 820 822 823 824 826 827 828 829 830 830 831 831 831 831 831 832 832 832 833 833 833 834 834 833 833 832 831 831 831 830 830 830 829 829 828 828 827 826 825 824 823 822 821 821 820 819 818 817 816 815 813 812 811 810 809 807 806 804 803 801 800 798 797 795 794 793 791 790 788 787 785 784 783 782 781 779 777